SL-23 DEB, 35577

Orbit data source: Space-Track

SL-23 DEB, 35577 is space debris in HEO originally from a launch on Thu, 26 Feb 2009 UTC launched from the Tyuratam Missile And Space Complex (TTMTR). Debris objects in space refer to the collection of defunct objects orbiting the Earth. Examples of debris include non-operational satellites, rocket bodies, and fragments generated from explosions, collisions, or faulty payload assembly.

Loading next visibility...
Identifier
35577, 2009-009C
Orbit
HEO
Country
Flag of CISCIS
Related business
Flag of RUSpace International Services (RU)
Manufacturer
Unknown
Mission
Spacecraft
Bus & Motor
Unknown
Mass
Unknown
Launch date (UTC)
2009-02-26 (17 years ago)
Launch vehicle
Unknown
Launch site
Tyuratam Missile And Space Complex (TTMTR)
Object type
Payload
Rocket body
Debris
Shape & HBR
Unknown
Radar Cross Section
Medium (>0.1 m² and <1 m²)

Expand to show TLE details & history
Last TLE update: 1 year ago

TLE from 1 year ago
0 SL-23 DEB
1 35577U 09009C   24156.38990581 -.00000056  00000-0  00000+0 0  9997
2 35577  35.1972 100.4794 6848400 239.7632 343.2146  2.20109299121453
Epoch: 2024-06-04T09:21Z
TLE epoch observation values (Epoch: 2024-06-04T09:21:27.861Z)
Latitude
14.59616°
Longitude
-134.90013°
Altitude
6,263.033 km
Speed
6.863 km/s
True Right ascension
17h 15m 06s
True Declination
14° 32' 56"
Sunlit
Object was in daylight at epoch
Visualization orbit readout
Latitude
Unknown
Longitude
Unknown
Altitude
Unknown
Speed
Unknown
Apparent Right ascension
Unknown
Apparent Declination
Unknown
Sunlit
N/A
Visualization observer readout
Local Sidereal Time
20:18:49
Azimuth
Unknown
Elevation
Unknown
Doppler factor
Unknown
Orbital elements
Apogee altitude
35,685.644 km
Perigee altitude
1,490.16 km
Semi-major axis
24,966.039 km
Eccentricity
0.68484
Inclination
35.1972°
RAAN
100.4794°
Arg. of periapsis
239.7632°
True anomaly
273.77825°
Mean anomaly
343.2146°
Eccentric anomaly
315.91587°
Mean motion
0.5502 °/min
Orbital period
654.31 mins
BSTAR
0
Loading maneuver chart data...
Computing Atmospheric mass density...
Loading historical data...
Loading historical data...
Loading historical data...
Loading historical data...
Loading historical data...
Loading historical data...
Loading historical data...
Other satellites on launch #9 in the year 2009 (2009-02-26 UTC)

Documentation

Showing up to 5 results
|